Flag for U.S.A. Weather past 2 weeks in St. Petersburg, Florida, U.S.A.

Now
77 °F

Passing clouds.


Feels Like: 78 °F
Forecast: 75 / 85 °F
Wind: 3 mph from Northeast

Location: Whitted Airport

Current Time: Apr 18, 2015 at 3:34:52 AM

Latest Report: Apr 18, 2015 at 2:53 AM


Visibility: 10 mi

Pressure: 29.95 "Hg

Humidity: 88%

Dew point: 73 °F

Location of St. PetersburgLocation

Historic Weather in St. Petersburg — Graph

°F

St. Petersburg temperature yesterday

Maximum temperature yesterday: 82 °F (at 3:53 PM)
Minimum temperature yesterday: 74 °F (at 4:53 AM)
Average temperature yesterday: 77 °F

Past Weeks' High & Low Weather Summary

 TemperatureHumidityPressure
High87 °F (Apr 7, 3:53 PM)91% (Apr 5, 5:53 AM)30.17 "Hg (Apr 5, 5:53 AM)
Low69 °F (Apr 3, 5:53 AM)42% (Apr 4, 1:53 PM)29.96 "Hg (Apr 17, 6:53 PM)
Average78 °F73%30.08 "Hg
* Reported Apr 3 1:53 AM — Apr 18 1:53 AM, St. Petersburg, Weather by CustomWeather, © 2015

Note: Actual official high and low records may vary slightly from our data, if they occured in-between our weather recording intervals... More about our weather records

Advertising

St. Petersburg weather history for previous 24 hours

 ConditionsComfort  
Time TempWeatherWind HumidityBarometerVisibility
1:53 AM
Sat, Apr 18
78 °FMostly cloudy.3 mph82%29.98 "Hg10 mi
12:53 AM78 °FPassing clouds.3 mph84%29.99 "Hg10 mi
11:53 PM
Fri, Apr 17
78 °FClear.3 mph84%29.99 "Hg10 mi
10:53 PM78 °FClear.3 mph82%29.99 "Hg10 mi
9:53 PM79 °FClear.5 mph79%29.98 "Hg10 mi
8:53 PM79 °FSunny.3 mph79%29.97 "Hg10 mi
7:53 PM80 °FSunny.7 mph74%29.96 "Hg10 mi
6:53 PM80 °FSunny.9 mph74%29.96 "Hg10 mi
5:53 PM81 °FPassing clouds.12 mph69%29.96 "Hg10 mi
4:53 PM81 °FPassing clouds.13 mph69%29.96 "Hg10 mi
3:53 PM82 °FSunny.9 mph65%29.97 "Hg10 mi
2:53 PM81 °FSunny.10 mph72%30.00 "Hg10 mi
1:53 PM80 °FSunny.7 mph74%30.02 "Hg10 mi
12:53 PM80 °FPassing clouds.9 mph76%30.03 "Hg10 mi
11:53 AM79 °FScattered clouds.8 mph77%30.06 "Hg10 mi
10:53 AM76 °FSunny.6 mph85%30.07 "Hg10 mi
9:53 AM75 °FMostly cloudy.5 mph85%30.07 "Hg10 mi
8:53 AM74 °FLow clouds.6 mph85%30.06 "Hg10 mi
7:53 AM74 °FPassing clouds.12 mph85%30.04 "Hg10 mi
6:53 AM74 °FPassing clouds.9 mph82%30.03 "Hg10 mi
5:53 AM74 °FPassing clouds.15 mph85%30.02 "Hg10 mi
4:53 AM74 °FOvercast.14 mph85%30.01 "Hg10 mi
4:03 AM75 °FPassing clouds.13 mph85%30.03 "Hg10 mi
3:53 AM75 °FPassing clouds.13 mph88%30.03 "Hg10 mi
Weather by CustomWeather, © 2015

See weather overviewHow to use our weather pages